Wetterdaten: aktuell Sonntag, 26.05.2019 03:06
Datum Zeit Temp. I. Temp. 2m Temp. 5cm Feuchte I. Feuchte 2m Luftdruck Regen Wind Richtung Richtung Taupunkt Windchill Windben
26.05.2019 03:06 27,6 C 14,2 C 14,0 C 50 % 74 % 1020,4 hPa 0,0 l/m 1,8 km/h (1 Bft) N-NO 22 9,6 C 14,2 C 4,1 km/h (1 Bft)
26.05.2019 03:04 27,6 C 14,2 C 14,0 C 50 % 74 % 1020,4 hPa 0,0 l/m 2,1 km/h (1 Bft) NW 315 9,6 C 14,2 C 3,1 km/h (1 Bft)
26.05.2019 03:02 27,6 C 14,2 C 14,0 C 50 % 74 % 1019,9 hPa 0,0 l/m 2,1 km/h (1 Bft) NW 315 9,6 C 14,2 C 3,1 km/h (1 Bft)
26.05.2019 03:00 27,6 C 14,2 C 14,0 C 50 % 74 % 1019,9 hPa 0,0 l/m 2,1 km/h (1 Bft) NW 315 9,6 C 14,2 C 3,1 km/h (1 Bft)
26.05.2019 02:58 27,6 C 14,2 C 14,0 C 50 % 74 % 1019,9 hPa 0,0 l/m 2,1 km/h (1 Bft) NW 315 9,6 C 14,2 C 1,9 km/h (1 Bft)
26.05.2019 02:56 27,6 C 14,2 C 14,0 C 50 % 74 % 1019,9 hPa 0,0 l/m 2,3 km/h (1 Bft) N-NW 337 9,6 C 14,2 C 3,5 km/h (1 Bft)
26.05.2019 02:54 27,6 C 14,2 C 14,0 C 50 % 74 % 1019,9 hPa 0,0 l/m 2,3 km/h (1 Bft) W-NW 292 9,6 C 14,2 C 4,1 km/h (1 Bft)
26.05.2019 02:52 27,6 C 14,2 C 14,0 C 50 % 74 % 1019,9 hPa 0,0 l/m 2,3 km/h (1 Bft) N-NW 337 9,6 C 14,2 C 2,9 km/h (1 Bft)
26.05.2019 02:50 27,6 C 14,2 C 14,0 C 50 % 74 % 1019,9 hPa 0,0 l/m 2,4 km/h (1 Bft) NW 315 9,6 C 14,2 C 4,1 km/h (1 Bft)
26.05.2019 02:48 27,6 C 14,2 C 14,0 C 50 % 74 % 1019,9 hPa 0,0 l/m 2,4 km/h (1 Bft) NW 315 9,6 C 14,2 C 2,9 km/h (1 Bft)
26.05.2019 02:46 27,6 C 14,3 C 14,0 C 50 % 74 % 1019,9 hPa 0,0 l/m 2,7 km/h (1 Bft) N-NW 337 9,7 C 14,3 C 3,5 km/h (1 Bft)
26.05.2019 02:44 27,6 C 14,3 C 14,0 C 50 % 74 % 1019,9 hPa 0,0 l/m 2,7 km/h (1 Bft) NW 315 9,7 C 14,3 C 4,1 km/h (1 Bft)
26.05.2019 02:42 27,6 C 14,3 C 14,0 C 50 % 74 % 1020,5 hPa 0,0 l/m 2,7 km/h (1 Bft) NW 315 9,7 C 14,3 C 5,4 km/h (1 Bft)
26.05.2019 02:40 27,6 C 14,3 C 14,0 C 50 % 74 % 1020,5 hPa 0,0 l/m 2,7 km/h (1 Bft) N-NW 337 9,7 C 14,3 C 3,9 km/h (1 Bft)
26.05.2019 02:38 27,6 C 14,3 C 14,0 C 50 % 74 % 1020,5 hPa 0,0 l/m 2,7 km/h (1 Bft) N-NW 337 9,7 C 14,3 C 2,7 km/h (1 Bft)
26.05.2019 02:36 27,6 C 14,3 C 14,0 C 50 % 74 % 1020,5 hPa 0,0 l/m 2,6 km/h (1 Bft) NW 315 9,7 C 14,3 C 4,4 km/h (1 Bft)
26.05.2019 02:34 27,7 C 14,3 C 14,0 C 50 % 74 % 1020,5 hPa 0,0 l/m 2,4 km/h (1 Bft) NW 315 9,7 C 14,3 C 5,6 km/h (1 Bft)
26.05.2019 02:32 27,7 C 14,3 C 14,1 C 50 % 74 % 1020,5 hPa 0,0 l/m 2,3 km/h (1 Bft) N-NW 337 9,7 C 14,3 C 2,3 km/h (1 Bft)
26.05.2019 02:30 27,7 C 14,4 C 14,1 C 50 % 74 % 1020,5 hPa 0,0 l/m 1,8 km/h (1 Bft) NW 315 9,8 C 14,4 C 4,1 km/h (1 Bft)
26.05.2019 02:28 27,7 C 14,4 C 14,1 C 50 % 74 % 1020,5 hPa 0,0 l/m 1,8 km/h (1 Bft) NW 315 9,8 C 14,4 C 3,9 km/h (1 Bft)
26.05.2019 02:26 27,7 C 14,4 C 14,1 C 50 % 74 % 1020,5 hPa 0,0 l/m 1,8 km/h (1 Bft) NW 315 9,8 C 14,4 C 3,3 km/h (1 Bft)
26.05.2019 02:24 27,7 C 14,4 C 14,1 C 50 % 74 % 1020,5 hPa 0,0 l/m 1,9 km/h (1 Bft) NW 315 9,8 C 14,4 C 2,1 km/h (1 Bft)
26.05.2019 02:22 27,7 C 14,4 C 14,1 C 50 % 74 % 1020,6 hPa 0,0 l/m 2,1 km/h (1 Bft) W-NW 292 9,8 C 14,4 C 4,1 km/h (1 Bft)
26.05.2019 02:20 27,7 C 14,4 C 14,1 C 50 % 74 % 1020,6 hPa 0,0 l/m 2,1 km/h (1 Bft) NW 315 9,8 C 14,4 C 0,0 km/h (0 Bft)
26.05.2019 02:18 27,7 C 14,4 C 14,2 C 50 % 74 % 1020,6 hPa 0,0 l/m 2,3 km/h (1 Bft) NW 315 9,8 C 14,4 C 2,9 km/h (1 Bft)
26.05.2019 02:16 27,7 C 14,4 C 14,2 C 50 % 74 % 1020,6 hPa 0,0 l/m 1,9 km/h (1 Bft) NW 315 9,8 C 14,4 C 3,3 km/h (1 Bft)
26.05.2019 02:14 27,7 C 14,4 C 14,1 C 50 % 74 % 1020,6 hPa 0,0 l/m 1,6 km/h (1 Bft) N-NW 337 9,8 C 14,4 C 3,3 km/h (1 Bft)
26.05.2019 02:12 27,7 C 14,4 C 14,2 C 51 % 74 % 1020,6 hPa 0,0 l/m 1,3 km/h (1 Bft) W-NW 292 9,8 C 14,4 C 4,2 km/h (1 Bft)
26.05.2019 02:10 27,8 C 14,4 C 14,2 C 51 % 74 % 1020,6 hPa 0,0 l/m 0,6 km/h (0 Bft) NW 315 9,8 C 14,4 C 4,1 km/h (1 Bft)
26.05.2019 02:08 27,8 C 14,4 C 14,2 C 51 % 74 % 1020,6 hPa 0,0 l/m 0,6 km/h (0 Bft) NW 315 9,8 C 14,4 C 3,1 km/h (1 Bft)
26.05.2019 02:06 27,8 C 14,4 C 14,2 C 51 % 74 % 1020,6 hPa 0,0 l/m 0,5 km/h (0 Bft) NW 315 9,8 C 14,4 C 3,7 km/h (1 Bft)
26.05.2019 02:04 27,8 C 14,4 C 14,3 C 51 % 74 % 1020,6 hPa 0,0 l/m 0,3 km/h (0 Bft) NW 315 9,8 C 14,4 C 2,1 km/h (1 Bft)
26.05.2019 02:02 27,8 C 14,4 C 14,3 C 51 % 73 % 1020,9 hPa 0,0 l/m 0,2 km/h (0 Bft) NW 315 9,6 C 14,4 C 0,0 km/h (0 Bft)
26.05.2019 02:00 27,8 C 14,4 C 14,3 C 51 % 73 % 1020,9 hPa 0,0 l/m 0,3 km/h (0 Bft) N-NO 22 9,6 C 14,4 C 0,0 km/h (0 Bft)
26.05.2019 01:58 27,8 C 14,4 C 14,3 C 51 % 73 % 1020,9 hPa 0,0 l/m 0,2 km/h (0 Bft) N 360 9,6 C 14,4 C 1,9 km/h (1 Bft)
26.05.2019 01:56 27,8 C 14,4 C 14,3 C 50 % 73 % 1020,9 hPa 0,0 l/m 0,2 km/h (0 Bft) NW 315 9,6 C 14,4 C 0,0 km/h (0 Bft)
26.05.2019 01:54 27,8 C 14,4 C 14,4 C 50 % 73 % 1020,9 hPa 0,0 l/m 0,2 km/h (0 Bft) NW 315 9,6 C 14,4 C 1,9 km/h (1 Bft)
26.05.2019 01:52 27,8 C 14,4 C 14,3 C 50 % 73 % 1020,9 hPa 0,0 l/m 0,2 km/h (0 Bft) NW 315 9,6 C 14,4 C 0,0 km/h (0 Bft)
26.05.2019 01:50 27,8 C 14,4 C 14,4 C 50 % 73 % 1020,9 hPa 0,0 l/m 0,3 km/h (0 Bft) NW 315 9,6 C 14,4 C 2,1 km/h (1 Bft)
26.05.2019 01:48 27,8 C 14,4 C 14,3 C 50 % 73 % 1020,9 hPa 0,0 l/m 0,6 km/h (0 Bft) NW 315 9,6 C 14,4 C 0,0 km/h (0 Bft)
26.05.2019 01:46 27,8 C 14,4 C 14,3 C 50 % 73 % 1020,9 hPa 0,0 l/m 0,8 km/h (0 Bft) NW 315 9,6 C 14,4 C 0,0 km/h (0 Bft)
26.05.2019 01:44 27,8 C 14,4 C 14,2 C 50 % 73 % 1020,9 hPa 0,0 l/m 1,3 km/h (1 Bft) NW 315 9,6 C 14,4 C 0,0 km/h (0 Bft)
26.05.2019 01:42 27,9 C 14,5 C 14,3 C 50 % 73 % 1020,9 hPa 0,0 l/m 1,6 km/h (1 Bft) NW 315 9,7 C 14,5 C 0,0 km/h (0 Bft)
26.05.2019 01:40 27,9 C 14,5 C 14,2 C 50 % 73 % 1020,9 hPa 0,0 l/m 1,6 km/h (1 Bft) NW 315 9,7 C 14,5 C 2,7 km/h (1 Bft)
26.05.2019 01:38 27,9 C 14,5 C 14,2 C 50 % 73 % 1020,9 hPa 0,0 l/m 1,4 km/h (1 Bft) NW 315 9,7 C 14,5 C 2,1 km/h (1 Bft)
26.05.2019 01:36 27,9 C 14,5 C 14,3 C 50 % 73 % 1020,9 hPa 0,0 l/m 1,3 km/h (1 Bft) NW 315 9,7 C 14,5 C 3,5 km/h (1 Bft)
26.05.2019 01:34 27,9 C 14,5 C 14,2 C 50 % 73 % 1020,9 hPa 0,0 l/m 1,0 km/h (0 Bft) NW 315 9,7 C 14,5 C 2,9 km/h (1 Bft)
26.05.2019 01:32 27,9 C 14,5 C 14,3 C 50 % 72 % 1020,9 hPa 0,0 l/m 0,5 km/h (0 Bft) NW 315 9,5 C 14,5 C 2,1 km/h (1 Bft)
26.05.2019 01:30 27,9 C 14,5 C 14,4 C 50 % 72 % 1020,9 hPa 0,0 l/m 0,5 km/h (0 Bft) NW 315 9,5 C 14,5 C 0,0 km/h (0 Bft)
26.05.2019 01:28 27,9 C 14,6 C 14,4 C 50 % 72 % 1020,9 hPa 0,0 l/m 0,5 km/h (0 Bft) W-NW 292 9,6 C 14,6 C 0,0 km/h (0 Bft)
26.05.2019 01:26 27,9 C 14,6 C 14,3 C 50 % 72 % 1020,9 hPa 0,0 l/m 1,0 km/h (0 Bft) W-NW 292 9,6 C 14,6 C 0,0 km/h (0 Bft)
26.05.2019 01:24 28,0 C 14,6 C 14,3 C 49 % 72 % 1020,9 hPa 0,0 l/m 1,1 km/h (1 Bft) W-NW 292 9,6 C 14,6 C 0,0 km/h (0 Bft)
26.05.2019 01:22 27,9 C 14,6 C 14,3 C 49 % 72 % 1021,1 hPa 0,0 l/m 1,4 km/h (1 Bft) NW 315 9,6 C 14,6 C 3,1 km/h (1 Bft)
26.05.2019 01:20 27,9 C 14,7 C 14,3 C 49 % 72 % 1021,1 hPa 0,0 l/m 1,9 km/h (1 Bft) NW 315 9,7 C 14,7 C 1,9 km/h (1 Bft)
26.05.2019 01:18 28,0 C 14,7 C 14,3 C 49 % 72 % 1021,1 hPa 0,0 l/m 2,6 km/h (1 Bft) NW 315 9,7 C 14,7 C 2,9 km/h (1 Bft)
26.05.2019 01:16 28,0 C 14,7 C 14,4 C 49 % 72 % 1021,1 hPa 0,0 l/m 2,9 km/h (1 Bft) NW 315 9,7 C 14,7 C 3,7 km/h (1 Bft)
26.05.2019 01:14 28,0 C 14,8 C 14,5 C 49 % 71 % 1021,1 hPa 0,0 l/m 3,2 km/h (1 Bft) NW 315 9,6 C 14,8 C 5,0 km/h (1 Bft)
26.05.2019 01:12 28,0 C 14,8 C 14,5 C 49 % 71 % 1021,1 hPa 0,0 l/m 3,4 km/h (1 Bft) NW 315 9,6 C 14,8 C 3,5 km/h (1 Bft)
26.05.2019 01:10 28,0 C 14,8 C 14,4 C 49 % 71 % 1021,1 hPa 0,0 l/m 3,5 km/h (1 Bft) NW 315 9,6 C 14,8 C 4,2 km/h (1 Bft)
26.05.2019 01:08 28,0 C 14,9 C 14,4 C 49 % 71 % 1021,1 hPa 0,0 l/m 3,5 km/h (1 Bft) NW 315 9,7 C 14,9 C 4,2 km/h (1 Bft)
26.05.2019 01:06 28,0 C 14,9 C 14,4 C 49 % 71 % 1021,1 hPa 0,0 l/m 3,4 km/h (1 Bft) NW 315 9,7 C 14,9 C 6,2 km/h (2 Bft)
26.05.2019 01:04 28,0 C 14,9 C 14,4 C 49 % 70 % 1021,1 hPa 0,0 l/m 3,4 km/h (1 Bft) NW 315 9,5 C 14,9 C 4,4 km/h (1 Bft)
26.05.2019 01:02 28,0 C 15,0 C 14,4 C 49 % 70 % 1021,2 hPa 0,0 l/m 3,2 km/h (1 Bft) NW 315 9,6 C 15,0 C 4,8 km/h (1 Bft)
26.05.2019 01:00 28,0 C 15,0 C 14,4 C 49 % 70 % 1021,2 hPa 0,0 l/m 3,1 km/h (1 Bft) N-NW 337 9,6 C 15,0 C 5,6 km/h (1 Bft)
26.05.2019 00:58 28,0 C 15,0 C 14,4 C 49 % 70 % 1021,2 hPa 0,0 l/m 2,7 km/h (1 Bft) NW 315 9,6 C 15,0 C 5,4 km/h (1 Bft)
26.05.2019 00:56 28,0 C 15,0 C 14,3 C 49 % 70 % 1021,2 hPa 0,0 l/m 2,4 km/h (1 Bft) NW 315 9,6 C 15,0 C 4,2 km/h (1 Bft)
26.05.2019 00:54 28,0 C 15,0 C 14,4 C 49 % 70 % 1021,2 hPa 0,0 l/m 2,3 km/h (1 Bft) W-NW 292 9,6 C 15,0 C 6,0 km/h (2 Bft)
26.05.2019 00:52 28,1 C 15,0 C 14,4 C 49 % 70 % 1021,2 hPa 0,0 l/m 1,9 km/h (1 Bft) N 360 9,6 C 15,0 C 2,9 km/h (1 Bft)
26.05.2019 00:50 28,1 C 15,1 C 14,4 C 49 % 69 % 1021,2 hPa 0,0 l/m 1,8 km/h (1 Bft) NW 315 9,5 C 15,1 C 3,3 km/h (1 Bft)
26.05.2019 00:48 28,1 C 15,1 C 14,4 C 49 % 69 % 1021,2 hPa 0,0 l/m 1,8 km/h (1 Bft) N 360 9,5 C 15,1 C 2,9 km/h (1 Bft)
26.05.2019 00:46 28,1 C 15,1 C 14,4 C 49 % 69 % 1021,2 hPa 0,0 l/m 1,9 km/h (1 Bft) N-NW 337 9,5 C 15,1 C 2,5 km/h (1 Bft)
26.05.2019 00:44 28,1 C 15,2 C 14,4 C 49 % 69 % 1021,2 hPa 0,0 l/m 2,3 km/h (1 Bft) NW 315 9,6 C 15,2 C 2,9 km/h (1 Bft)
26.05.2019 00:42 28,1 C 15,2 C 14,4 C 49 % 69 % 1021,1 hPa 0,0 l/m 2,6 km/h (1 Bft) N-NW 337 9,6 C 15,2 C 2,9 km/h (1 Bft)
26.05.2019 00:40 28,1 C 15,2 C 14,5 C 49 % 69 % 1021,1 hPa 0,0 l/m 2,9 km/h (1 Bft) N 360 9,6 C 15,2 C 3,3 km/h (1 Bft)
26.05.2019 00:38 28,2 C 15,2 C 14,5 C 50 % 69 % 1021,1 hPa 0,0 l/m 3,4 km/h (1 Bft) W-SW 247 9,6 C 15,2 C 3,3 km/h (1 Bft)
26.05.2019 00:36 28,2 C 15,2 C 14,5 C 50 % 68 % 1021,1 hPa 0,0 l/m 4,0 km/h (1 Bft) N-NW 337 9,3 C 15,2 C 6,2 km/h (2 Bft)
26.05.2019 00:34 28,2 C 15,3 C 14,5 C 50 % 68 % 1021,1 hPa 0,0 l/m 4,3 km/h (1 Bft) N-NO 22 9,4 C 15,3 C 4,2 km/h (1 Bft)
26.05.2019 00:32 28,2 C 15,3 C 14,6 C 50 % 68 % 1021,1 hPa 0,0 l/m 4,7 km/h (1 Bft) N-NO 22 9,4 C 15,3 C 5,0 km/h (1 Bft)
26.05.2019 00:30 28,2 C 15,3 C 14,6 C 50 % 68 % 1021,1 hPa 0,0 l/m 5,0 km/h (1 Bft) N-NO 22 9,4 C 15,3 C 4,6 km/h (1 Bft)
26.05.2019 00:28 28,2 C 15,2 C 14,5 C 50 % 68 % 1021,1 hPa 0,0 l/m 5,5 km/h (1 Bft) N-NO 22 9,3 C 15,2 C 13,1 km/h (3 Bft)
26.05.2019 00:26 28,2 C 15,3 C 14,5 C 50 % 67 % 1021,1 hPa 0,0 l/m 5,6 km/h (1 Bft) O 90 9,2 C 15,3 C 13,1 km/h (3 Bft)
26.05.2019 00:24 28,2 C 15,3 C 14,5 C 50 % 67 % 1021,1 hPa 0,0 l/m 5,5 km/h (1 Bft) N-NO 22 9,2 C 15,3 C 7,9 km/h (2 Bft)
26.05.2019 00:22 28,2 C 15,4 C 14,5 C 50 % 67 % 1021,2 hPa 0,0 l/m 5,6 km/h (1 Bft) N 360 9,3 C 15,4 C 6,2 km/h (2 Bft)
26.05.2019 00:20 28,2 C 15,4 C 14,5 C 50 % 67 % 1021,2 hPa 0,0 l/m 5,3 km/h (1 Bft) N-NO 22 9,3 C 15,4 C 3,9 km/h (1 Bft)
26.05.2019 00:18 28,2 C 15,5 C 14,4 C 50 % 67 % 1021,2 hPa 0,0 l/m 5,3 km/h (1 Bft) N-NO 22 9,4 C 15,5 C 11,8 km/h (2 Bft)
26.05.2019 00:16 28,3 C 15,5 C 14,5 C 49 % 66 % 1021,2 hPa 0,0 l/m 4,8 km/h (1 Bft) W-SW 247 9,2 C 15,5 C 9,7 km/h (2 Bft)
26.05.2019 00:14 28,3 C 15,6 C 14,4 C 50 % 66 % 1021,2 hPa 0,0 l/m 4,7 km/h (1 Bft) N 360 9,3 C 15,6 C 6,4 km/h (2 Bft)
26.05.2019 00:12 28,3 C 15,6 C 14,4 C 50 % 66 % 1021,2 hPa 0,0 l/m 4,2 km/h (1 Bft) NO 45 9,3 C 15,6 C 6,6 km/h (2 Bft)
26.05.2019 00:10 28,3 C 15,7 C 14,4 C 50 % 66 % 1021,2 hPa 0,0 l/m 4,0 km/h (1 Bft) NW 315 9,4 C 15,7 C 4,4 km/h (1 Bft)
26.05.2019 00:08 28,3 C 15,7 C 14,4 C 50 % 66 % 1021,2 hPa 0,0 l/m 3,9 km/h (1 Bft) N-NW 337 9,4 C 15,7 C 7,5 km/h (2 Bft)
26.05.2019 00:06 28,3 C 15,8 C 14,4 C 50 % 66 % 1021,2 hPa 0,0 l/m 3,5 km/h (1 Bft) N-NO 22 9,5 C 15,8 C 5,4 km/h (1 Bft)
26.05.2019 00:04 28,2 C 15,8 C 14,4 C 50 % 66 % 1021,2 hPa 0,0 l/m 3,4 km/h (1 Bft) N-NO 22 9,5 C 15,8 C 5,2 km/h (1 Bft)
26.05.2019 00:02 28,3 C 15,8 C 14,4 C 50 % 65 % 1021,0 hPa 0,0 l/m 2,3 km/h (1 Bft) NW 315 9,2 C 15,8 C 5,2 km/h (1 Bft)
26.05.2019 00:00 28,4 C 15,8 C 14,4 C 50 % 65 % 1021,0 hPa 0,0 l/m 2,3 km/h (1 Bft) NW 315 9,2 C 15,8 C 5,2 km/h (1 Bft)
_ Min-Zeit 02:36 02:48 02:34 00:16 00:00 02:44 - 01:52 - - 00:16 02:48 01:24
Minimum _ 27,6 C 14,2 C 14,0 C 49 % 65 % 1019,9 hPa - 0,2 km/h (0 Bft) - - 9,2 C 14,2 C 0,0 km/h (0 Bft)
_ Max-Zeit 00:00 00:00 00:30 01:58 02:04 00:04 00:00 00:22 - - 02:04 00:00 00:26
Maximum _ 28,4 C 15,8 C 14,6 C 51 % 74 % 1021,2 hPa 0,0 l/m 5,6 km/h
N (1 Bft)
- - 9,8 C 15,8 C 13,1 km/h
O (3 Bft)
Durchschnitt _ 27,9 C 14,7 C 14,3 C 50 % 71 % 1020,8 hPa #0,0 l/m 2,4 km/h (1 Bft) NW - 9,6 C 14,7 C 3,7 km/h (1 Bft)